Weather History for KGSH - February, 2012

Change the Weather History Date:

Sunday, February 19, 2012

  Actual Average Record
Temperature  
Mean Temperature 28 °F -  
Max Temperature 36 °F 37 °F 57 °F (1954)
Min Temperature 19 °F 23 °F -9 °F (1978)
Degree Days  
Heating Degree Days 38    
Moisture  
Dew Point 17 °F    
Average Humidity 69    
Maximum Humidity 88    
Minimum Humidity 50    
Precipitation  
Precipitation 0.00 in - - ()
Sea Level Pressure  
Sea Level Pressure 30.20 in    
Wind  
Wind Speed 5 mph (NE)    
Max Wind Speed 12 mph    
Max Gust Speed 18 mph    
Visibility 10 miles    
Events      
Averages and records for this station are not official NWS values.
T = Trace of Precipitation, MM = Missing Value Source: NWS Daily Summary

Daily Weather History Graph

Daily Weather History Graph

Search for Another Location

Airport or City:

Trip Planner

Search our weather history database for the weather conditions in past years. The results will help you decide how hot, cold, wet, or windy it might be!

Date:

Astronomy

Feb. 19, 2012 Rise Set
Actual Time 7:33 AM EST 6:21 PM EST
Civil Twilight 7:05 AM EST 6:49 PM EST
Nautical Twilight 6:32 AM EST 7:21 PM EST
Astronomical Twilight 6:00 AM EST 7:53 PM EST
Moon 5:55 AM EST (2/19) 4:20 PM EST (2/19)
Length of Visible Light 11h 44m
Length of Day
10h 47m
Waning Crescent, 5% of the Moon is Illuminated
Feb 19
Waning Crescent
Feb 21
New
Feb 29
First Quarter
Mar 8
Full
Mar 14
Last Quarter

Hourly Weather History & Observations

Time (EST) Temp. Windchill Dew Point Humidity Pressure Visibility Wind Dir Wind Speed Gust Speed Precip Events Conditions
12:53 AM 23.0 °F 18.4 °F 18.0 °F 81% 30.23 in 10.0 mi North 3.5 mph - N/A   Clear
1:53 AM 21.0 °F 16.2 °F 18.0 °F 88% 30.23 in 10.0 mi NE 3.5 mph - N/A   Clear
2:53 AM 19.9 °F 12.1 °F 16.0 °F 85% 30.22 in 10.0 mi North 5.8 mph - N/A   Clear
3:53 AM 21.0 °F 13.4 °F 16.0 °F 81% 30.20 in 10.0 mi NE 5.8 mph - N/A   Clear
4:53 AM 23.0 °F 13.9 °F 17.1 °F 78% 30.19 in 10.0 mi NE 8.1 mph - N/A   Clear
5:53 AM 23.0 °F 14.7 °F 17.1 °F 78% 30.19 in 10.0 mi NE 6.9 mph - N/A   Clear
6:53 AM 21.9 °F 14.5 °F 16.0 °F 78% 30.19 in 10.0 mi NE 5.8 mph - N/A   Clear
7:53 AM 21.9 °F 14.5 °F 16.0 °F 78% 30.21 in 10.0 mi NE 5.8 mph - N/A   Clear
8:53 AM 25.0 °F 19.3 °F 17.1 °F 72% 30.22 in 10.0 mi NE 4.6 mph - N/A   Clear
9:53 AM 26.1 °F 18.4 °F 18.0 °F 71% 30.24 in 10.0 mi NE 6.9 mph - N/A   Clear
10:53 AM 28.9 °F 21.1 °F 19.9 °F 69% 30.22 in 10.0 mi NE 8.1 mph - N/A   Clear
11:53 AM 30.9 °F 22.2 °F 19.0 °F 61% 30.21 in 10.0 mi ENE 10.4 mph - N/A   Partly Cloudy
12:53 PM 33.1 °F 26.9 °F 18.0 °F 54% 30.20 in 10.0 mi NNE 6.9 mph - N/A   Clear
1:53 PM 34.0 °F 26.0 °F 18.0 °F 52% 30.18 in 10.0 mi NNE 10.4 mph 18.4 mph N/A   Clear
2:53 PM 36.0 °F 29.0 °F 19.0 °F 50% 30.16 in 10.0 mi NNE 9.2 mph - N/A   Clear
4:53 PM 35.1 °F 27.9 °F 18.0 °F 50% 30.15 in 10.0 mi North 9.2 mph - N/A   Clear
5:53 PM 34.0 °F 25.5 °F 17.1 °F 50% 30.15 in 10.0 mi NNE 11.5 mph - N/A   Clear
6:53 PM 30.0 °F 24.1 °F 17.1 °F 59% 30.17 in 10.0 mi NNE 5.8 mph - N/A   Clear
7:53 PM 28.9 °F - 17.1 °F 61% 30.19 in 8.0 mi Calm Calm - N/A   Clear
8:53 PM 28.0 °F 22.8 °F 17.1 °F 63% 30.20 in 10.0 mi NE 4.6 mph - N/A   Clear
9:53 PM 27.0 °F - 17.1 °F 66% 30.22 in 10.0 mi Calm Calm - N/A   Clear
10:53 PM 24.1 °F - 17.1 °F 75% 30.23 in 10.0 mi Calm Calm - N/A   Clear
11:53 PM 21.9 °F - 17.1 °F 82% 30.24 in 10.0 mi Calm Calm - N/A   Clear